Location: Bruxelles
(50.8503°N, 4.3517°E)
Time: 18:05:18
(UTC+02:00)

Envisat - Visible Passes

Search period start: 23 October 2019 00:00
Search period end: 01 November 2019 23:00
Orbit: 764 x 766 km, 98.1° (Epoch: 23 October)

Date Brightness Start Highest point End Pass type
(mag) Time Alt. Az. Time Alt. Az. Time Alt. Az.
23 Oct 3.0 19:21:33 10° SSE 19:26:37 72° ENE 19:31:42 10° N visible
23 Oct 5.7 21:02:38 10° SW 21:06:11 19° W 21:09:45 10° NW visible
24 Oct 6.1 07:26:23 10° NE 07:29:45 17° E 07:33:05 10° SE visible
24 Oct 4.6 20:24:22 10° SSW 20:29:02 36° W 20:33:45 10° NNW visible
25 Oct 3.3 19:47:02 10° S 19:52:07 72° WSW 19:57:13 10° NNW visible
25 Oct 6.2 21:30:29 10° WSW 21:32:04 11° W 21:33:40 10° WNW visible
26 Oct 3.0 19:10:24 10° SSE 19:15:22 59° ENE 19:20:23 10° N visible
26 Oct 5.4 20:50:48 10° SW 20:54:47 23° W 20:58:48 10° NW visible
27 Oct 6.2 06:15:38 10° NE 06:18:19 14° E 06:20:59 10° ESE visible
27 Oct 4.2 19:12:51 10° S 19:17:43 44° W 19:22:36 10° NNW visible
28 Oct 3.0 18:35:45 10° SSE 18:40:50 87° WSW 18:45:58 10° NNW visible
28 Oct 6.0 20:17:57 10° WSW 20:20:37 14° W 20:23:18 10° NW visible
29 Oct 5.8 06:40:09 10° NE 06:44:10 23° E 06:48:09 10° SE visible
29 Oct 3.2 17:59:17 10° SE 18:04:09 48° ENE 18:09:02 10° N visible
29 Oct 5.1 19:39:04 10° SSW 19:43:24 28° W 19:47:46 10° NW visible
30 Oct 6.5 06:05:17 10° ENE 06:06:52 11° E 06:08:28 10° ESE visible
30 Oct 3.8 19:01:25 10° S 19:06:23 55° W 19:11:24 10° NNW visible
31 Oct 2.9 18:24:30 10° SSE 18:29:34 77° ENE 18:34:41 10° NNW visible
31 Oct 5.8 20:05:52 10° SW 20:09:12 17° W 20:12:34 10° NW visible
01 Nov 6.0 06:29:12 10° NE 06:32:46 19° E 06:36:19 10° SE visible
01 Nov 3.4 17:48:14 10° SE 17:52:56 40° ENE 17:57:41 10° N visible
01 Nov 4.7 19:27:27 10° SSW 19:32:03 34° W 19:36:40 10° NNW visible
